Erie, PA

4:58 AM EST on November 15, 2019 (GMT -0500)
Erie International

Weather History for KERI - September, 2019

Change the Weather History Date:

Friday, September 27, 2019

  Actual Average Record
Temperature  
Mean Temperature 66 °F 60 °F  
Max Temperature 80 °F 68 °F 85 °F (1923)
Min Temperature 52 °F 52 °F 33 °F (1957)
Degree Days  
Heating Degree Days 0 6  
Month to date heating degree days 11 83  
Since 1 July heating degree days 12 101  
Cooling Degree Days 1 1  
Month to date cooling degree days 124 67  
Year to date cooling degree days 814 625  
Growing Degree Days 16 (Base 50)    
Moisture  
Dew Point 46 °F    
Average Humidity 51    
Maximum Humidity 77    
Minimum Humidity 30    
Precipitation  
Precipitation 0.00 in 0.17 in 2.16 in (2002)
Month to date precipitation 3.27 4.11  
Year to date precipitation 29.59 29.94  
Snow  
Snow 0.00 in 0.00 in - ()
Month to date snowfall 0.0 0.0  
Since 1 July snowfall 0.0 0.0  
Since 1 September snowfall 0.0 0.0  
Snow Depth 0.00 in    
Sea Level Pressure  
Sea Level Pressure 29.97 in    
Wind  
Wind Speed 9 mph ()    
Max Wind Speed 23 mph    
Max Gust Speed 31 mph    
Visibility 10.0 miles    
Events Rain    
T = Trace of Precipitation, MM = Missing Value Source: Averaged Metar Reports

Daily Weather History Graph

Daily Weather History Graph

Search for Another Location

Airport or City:

Astronomy

Sep. 27, 2019 Rise Set
Actual Time 7:13 AM EDT 7:09 PM EDT
Civil Twilight 6:45 AM EDT 7:37 PM EDT
Nautical Twilight 6:12 AM EDT 8:09 PM EDT
Astronomical Twilight 5:39 AM EDT 8:42 PM EDT
Moon 5:29 AM EDT (9/27) 7:01 PM EDT (9/27)
Length of Visible Light 12h 52m
Length of Day
11h 56m
Waning Crescent, 2% of the Moon is Illuminated
Sep 27
Waning Crescent
Sep 28
New
Oct 5
First Quarter
Oct 13
Full
Oct 21
Last Quarter

Hourly Weather History & Observations

Time (EDT) Temp. Dew Point Humidity Pressure Visibility Wind Dir Wind Speed Gust Speed Precip Events Conditions
12:51 AM 54.0 °F 45.0 °F 72% 30.01 in 10.0 mi Calm Calm - N/A   Clear
1:51 AM 53.1 °F 45.0 °F 74% 30.00 in 10.0 mi Calm Calm - N/A   Clear
2:51 AM 53.1 °F 45.0 °F 74% 29.99 in 10.0 mi South 5.8 mph - N/A   Clear
3:51 AM 52.0 °F 45.0 °F 77% 29.99 in 10.0 mi South 6.9 mph - N/A   Clear
4:51 AM 52.0 °F 44.1 °F 74% 30.00 in 10.0 mi SSW 5.8 mph - N/A   Clear
5:51 AM 53.1 °F 45.0 °F 74% 30.03 in 10.0 mi SSE 13.8 mph - N/A   Clear
6:51 AM 53.1 °F 45.0 °F 74% 30.04 in 10.0 mi South 11.5 mph - N/A   Clear
7:51 AM 54.0 °F 45.0 °F 72% 30.07 in 10.0 mi South 10.4 mph - N/A   Clear
8:51 AM 59.0 °F 46.0 °F 62% 30.06 in 10.0 mi South 13.8 mph - N/A   Clear
9:51 AM 64.0 °F 46.9 °F 54% 30.06 in 10.0 mi SSE 12.7 mph - N/A   Clear
10:51 AM 68.0 °F 46.9 °F 47% 30.06 in 10.0 mi SSE 13.8 mph - N/A   Clear
11:51 AM 72.0 °F 48.0 °F 43% 30.02 in 10.0 mi SSE 11.5 mph - N/A   Clear
12:51 PM 75.0 °F 44.1 °F 33% 29.99 in 10.0 mi South 15.0 mph 20.7 mph 0.00 in Rain Light Rain
1:51 PM 77.0 °F 46.0 °F 33% 29.97 in 10.0 mi South 15.0 mph 20.7 mph 0.00 in   Clear
2:51 PM 78.1 °F 46.0 °F 32% 29.94 in 10.0 mi South 16.1 mph - 0.00 in Rain Light Rain
3:51 PM 80.1 °F 46.0 °F 30% 29.91 in 10.0 mi SSE 18.4 mph 27.6 mph 0.00 in   Clear
4:51 PM 78.1 °F 45.0 °F 31% 29.89 in 10.0 mi South 18.4 mph 25.3 mph 0.00 in Rain Light Rain
5:51 PM 75.9 °F 46.9 °F 36% 29.89 in 10.0 mi South 17.3 mph 24.2 mph 0.00 in Rain Light Rain
6:51 PM 75.0 °F 48.0 °F 38% 29.90 in 10.0 mi South 16.1 mph 23.0 mph 0.00 in Rain Light Rain
7:51 PM 75.0 °F 46.9 °F 37% 29.90 in 10.0 mi South 16.1 mph 25.3 mph 0.00 in Rain Light Rain
8:51 PM 73.0 °F 48.0 °F 41% 29.92 in 10.0 mi South 10.4 mph - 0.00 in   Clear
9:51 PM 73.0 °F 46.9 °F 39% 29.90 in 10.0 mi South 15.0 mph - 0.00 in Rain Light Rain
10:51 PM 73.9 °F 46.0 °F 37% 29.85 in 10.0 mi South 21.9 mph 28.8 mph 0.00 in Rain Light Rain
11:51 PM 73.0 °F 48.0 °F 41% 29.86 in 10.0 mi South 16.1 mph 24.2 mph 0.00 in Rain Light Rain